Time,TemperatureF,DewpointF,PressureIn,WindDirection,WindDirectionDegrees,WindSpeedMPH,WindSpeedGustMPH,Humidity,HourlyPrecipIn,Conditions,Clouds,dailyrainin,SoftwareType,DateUTC
2013-09-28 00:00:00,59.0,-99.9,30.16,SSE,160,16.0,-999.0,-999,-99.99,,,-99.99,,2013-09-28 05:00:00,
2013-09-28 00:43:00,59.0,-99.9,30.16,SSE,160,16.0,-999.0,-999,-99.99,,,-99.99,,2013-09-28 05:43:00,
2013-09-28 00:53:00,59.0,-99.9,30.16,SSE,160,16.0,-999.0,-999,-99.99,,,-99.99,,2013-09-28 05:53:00,
2013-09-28 01:00:00,60.0,-99.9,30.15,SSE,160,13.0,-999.0,-999,-99.99,,,-99.99,,2013-09-28 06:00:00,
2013-09-28 01:42:00,60.0,-99.9,30.15,SSE,160,13.0,-999.0,-999,-99.99,,,-99.99,,2013-09-28 06:42:00,
2013-09-28 01:52:00,60.0,-99.9,30.15,SSE,160,13.0,-999.0,-999,-99.99,,,-99.99,,2013-09-28 06:52:00,
2013-09-28 02:00:00,60.0,-99.9,30.14,SSE,150,17.0,-999.0,-999,-99.99,,,-99.99,,2013-09-28 07:00:00,
2013-09-28 02:42:00,60.0,-99.9,30.14,SSE,150,17.0,-999.0,-999,-99.99,,,-99.99,,2013-09-28 07:42:00,
2013-09-28 02:52:00,60.0,-99.9,30.14,SSE,150,17.0,-999.0,-999,-99.99,,,-99.99,,2013-09-28 07:52:00,
2013-09-28 03:00:00,62.0,-99.9,30.12,SSE,150,14.0,-999.0,-999,-99.99,,,-99.99,,2013-09-28 08:00:00,
2013-09-28 03:43:00,62.0,-99.9,30.12,SSE,150,14.0,-999.0,-999,-99.99,,,-99.99,,2013-09-28 08:43:00,
2013-09-28 03:53:00,62.0,-99.9,30.12,SSE,150,14.0,-999.0,-999,-99.99,,,-99.99,,2013-09-28 08:53:00,
2013-09-28 04:00:00,62.0,-99.9,30.11,SSE,150,21.0,-999.0,-999,-99.99,,,-99.99,,2013-09-28 09:00:00,
2013-09-28 04:43:00,62.0,-99.9,30.11,SSE,150,21.0,-999.0,-999,-99.99,,,-99.99,,2013-09-28 09:43:00,
2013-09-28 04:54:00,62.0,-99.9,30.11,SSE,150,21.0,-999.0,-999,-99.99,,,-99.99,,2013-09-28 09:54:00,
2013-09-28 05:00:00,62.0,-99.9,30.09,South,170,24.0,-999.0,-999,-99.99,,,-99.99,,2013-09-28 10:00:00,
2013-09-28 05:43:00,62.0,-99.9,30.09,South,170,24.0,-999.0,-999,-99.99,,,-99.99,,2013-09-28 10:43:00,
2013-09-28 05:53:00,62.0,-99.9,30.09,South,170,24.0,-999.0,-999,-99.99,,,-99.99,,2013-09-28 10:53:00,
2013-09-28 06:00:00,63.0,-99.9,30.09,SSE,160,25.0,-999.0,-999,-99.99,,,-99.99,,2013-09-28 11:00:00,
2013-09-28 06:43:00,63.0,-99.9,30.09,SSE,160,25.0,-999.0,-999,-99.99,,,-99.99,,2013-09-28 11:43:00,
2013-09-28 06:52:00,63.0,-99.9,30.09,SSE,160,25.0,-999.0,-999,-99.99,,,-99.99,,2013-09-28 11:52:00,
2013-09-28 10:00:00,63.0,-99.9,30.02,SSE,160,23.0,-999.0,-999,-99.99,,,-99.99,,2013-09-28 15:00:00,
2013-09-28 10:44:00,63.0,-99.9,30.02,SSE,160,23.0,-999.0,-999,-99.99,,,-99.99,,2013-09-28 15:44:00,
2013-09-28 10:54:00,63.0,-99.9,30.02,SSE,160,23.0,-999.0,-999,-99.99,,,-99.99,,2013-09-28 15:54:00,
2013-09-28 12:00:00,65.0,-99.9,29.99,South,170,21.0,-999.0,-999,-99.99,,,-99.99,,2013-09-28 17:00:00,
2013-09-28 12:43:00,65.0,-99.9,29.99,South,170,21.0,-999.0,-999,-99.99,,,-99.99,,2013-09-28 17:43:00,
2013-09-28 12:52:00,65.0,-99.9,29.99,South,170,21.0,-999.0,-999,-99.99,,,-99.99,,2013-09-28 17:52:00,
2013-09-28 13:00:00,66.0,-99.9,29.97,South,170,21.0,-999.0,-999,-99.99,,,-99.99,,2013-09-28 18:00:00,
2013-09-28 13:42:00,66.0,-99.9,29.97,South,170,21.0,-999.0,-999,-99.99,,,-99.99,,2013-09-28 18:42:00,
2013-09-28 13:52:00,66.0,-99.9,29.97,South,170,21.0,-999.0,-999,-99.99,,,-99.99,,2013-09-28 18:52:00,
2013-09-28 14:00:00,67.0,-99.9,29.92,South,180,29.0,-999.0,-999,-99.99,,,-99.99,,2013-09-28 19:00:00,
2013-09-28 14:42:00,67.0,-99.9,29.92,South,180,29.0,-999.0,-999,-99.99,,,-99.99,,2013-09-28 19:42:00,
2013-09-28 14:52:00,67.0,-99.9,29.92,South,180,29.0,-999.0,-999,-99.99,,,-99.99,,2013-09-28 19:52:00,
2013-09-28 15:00:00,67.0,-99.9,29.89,SSE,160,30.0,-999.0,-999,-99.99,,,-99.99,,2013-09-28 20:00:00,
2013-09-28 15:53:00,67.0,-99.9,29.89,SSE,160,30.0,-999.0,-999,-99.99,,,-99.99,,2013-09-28 20:53:00,
2013-09-28 16:00:00,68.0,-99.9,29.89,South,170,30.0,-999.0,-999,-99.99,,,-99.99,,2013-09-28 21:00:00,
2013-09-28 16:44:00,68.0,-99.9,29.89,South,170,30.0,-999.0,-999,-99.99,,,-99.99,,2013-09-28 21:44:00,
2013-09-28 16:55:00,68.0,-99.9,29.89,South,170,30.0,-999.0,-999,-99.99,,,-99.99,,2013-09-28 21:55:00,
2013-09-28 17:00:00,68.0,-99.9,29.88,SSE,160,32.0,-999.0,-999,-99.99,,,-99.99,,2013-09-28 22:00:00,
2013-09-28 17:43:00,68.0,-99.9,29.88,SSE,160,32.0,-999.0,-999,-99.99,,,-99.99,,2013-09-28 22:43:00,
2013-09-28 17:54:00,68.0,-99.9,29.88,SSE,160,32.0,-999.0,-999,-99.99,,,-99.99,,2013-09-28 22:54:00,
2013-09-28 18:00:00,68.0,-99.9,29.86,SSE,150,29.0,-999.0,-999,-99.99,,,-99.99,,2013-09-28 23:00:00,
2013-09-28 18:43:00,68.0,-99.9,29.86,SSE,150,29.0,-999.0,-999,-99.99,,,-99.99,,2013-09-28 23:43:00,
2013-09-28 18:53:00,68.0,-99.9,29.86,SSE,150,29.0,-999.0,-999,-99.99,,,-99.99,,2013-09-28 23:53:00,